This demonstration page uses our WeatherBlox Daily Observations layout. Learn more.

Left ArrowRight Arrow

39.92423, -83.80882

Hourly Observations for February 17, 2019

Temp ( °F °C ) Dew Point ( °F °C ) Humidity (%) Winds ( mph kmh ) Pressure ( in mb ) Visibility ( mi km ) Precip ( " mm )
12:56 am 00:56 Clear 23 -5 20 -6.7 88 88 E 12 19 30.02 1017 10 16 0.00 0.00
1:56 am 01:56 Clear 23 -5 20 -6.7 88 88 E 13 20 30.02 1017 10 16 0.00 0.00
2:56 am 02:56 Clear 22 -5.6 20 -6.7 92 92 E 9 15 30.02 1017 10 16 0.00 0.00
3:56 am 03:56 Clear 22 -5.6 20 -6.7 92 92 E 12 19 29.99 1016 10 16 0.00 0.00
4:56 am 04:56 Mostly Clear 23 -5 20 -6.7 88 88 E 17 28 29.94 1014 10 16 0.00 0.00
5:56 am 05:56 Mostly Clear 23 -5 20 -6.7 88 88 ENE 14 22 29.94 1014 10 16 0.00 0.00
6:56 am 06:56 Cloudy 24 -4.4 21 -6.1 88 88 E 13 20 29.94 1014 10 16 0.00 0.00
7:56 am 07:56 Cloudy with Light Snow 25 -3.9 22 -5.6 88 88 ENE 12 19 29.95 1014 9 14 0.00 0.03
8:56 am 08:56 Cloudy 25 -3.9 22 -5.6 88 88 ENE 16 26 29.92 1013 10 16 0.00 0.03
9:56 am 09:56 Cloudy 27 -2.8 23 -5 85 85 E 14 22 29.92 1013 10 16 0.00 0.00
10:17 am 10:17 Cloudy 28 -2 23 -5 80 80 E 17 28 29.89 1012 10 16 0.00 0.00
10:56 am 10:56 Cloudy 29 -1.7 23 -5 78 78 E 14 22 29.86 1011 10 16 0.00 0.00
11:56 am 11:56 Cloudy 29 -1.7 24 -4.4 82 82 E 13 20 29.85 1011 10 16 0.00 0.00
12:56 pm 12:56 Cloudy with Light Snow 29 -1.7 26 -3.3 89 89 E 9 15 29.85 1011 8 13 0.00 0.03
1:12 pm 13:12 Cloudy with Light Snow 28 -2 27 -3 93 93 E 10 17 29.85 1011 5 8 0.01 0.25
1:52 pm 13:52 Cloudy with Light Snow 28 -2 28 -2 100 100 E 9 15 29.83 1010 2 2 0.07 1.78
1:56 pm 13:56 Cloudy with Light Snow 29 -1.7 28 -2.2 96 96 E 13 20 29.80 1009 2 2 0.08 2.03
2:01 pm 14:01 Cloudy with Light Snow 28 -2 28 -2 100 100 E 13 20 29.82 1010 3 5 0.00 0.03
2:56 pm 14:56 Cloudy with Light Snow 29 -1.7 28 -2.2 96 96 E 10 17 29.78 1008 3 5 0.01 0.25
3:11 pm 15:11 Cloudy with Light Snow 28 -2 28 -2 100 100 E 13 20 29.77 1008 3 4 0.00 0.03
3:23 pm 15:23 Cloudy with Light Freezing Rain 28 -2 28 -2 100 100 E 9 15 29.78 1009 3 4 0.00 0.03
3:33 pm 15:33 Cloudy with Light Freezing Rain 28 -2 28 -2 100 100 E 9 15 29.77 1008 2 3 0.00 0.03
3:35 pm 15:35 Cloudy with Light Snow 28 -2 28 -2 100 100 E 9 15 29.77 1008 2 3 0.00 0.03
3:49 pm 15:49 Cloudy with Light Freezing Rain 28 -2 28 -2 100 100 E 10 17 29.78 1009 2 3 0.00 0.03
3:56 pm 15:56 Cloudy with Light Freezing Rain 29 -1.7 29 -1.7 100 100 E 9 15 29.76 1008 2 3 0.00 0.03
4:06 pm 16:06 Cloudy with Light Wintry Mix 28 -2 28 -2 100 100 E 10 17 29.78 1009 3 5 0.00 0.03
4:44 pm 16:44 Cloudy with Light Snow 28 -2 28 -2 100 100 ESE 6 9 29.80 1009 2 3 0.00 0.03
4:49 pm 16:49 Cloudy with Light Freezing Rain 28 -2 28 -2 100 100 ESE 6 9 29.80 1009 2 3 0.00 0.03
4:53 pm 16:53 Cloudy with Light Snow 30 -1 30 -1 100 100 ESE 5 7 29.80 1009 2 3 0.00 0.03
4:56 pm 16:56 Cloudy with Light Snow 30 -1.1 30 -1.1 100 100 ESE 5 7 29.78 1008 2 2 0.00 0.03
5:43 pm 17:43 Cloudy with Light Wintry Mix 28 -2 28 -2 100 100 E 5 7 29.77 1008 2 3 0.01 0.25
5:56 pm 17:56 Cloudy with Mist and Fog 29 -1.7 29 -1.7 100 100 E 3 6 29.76 1008 2 3 0.01 0.25
6:14 pm 18:14 Cloudy with Mist and Fog 28 -2 28 -2 100 100 Calm 29.79 1009 3 4 0.01 0.25
6:30 pm 18:30 Cloudy with Mist and Fog 28 -2 28 -2 100 100 SE 3 6 29.79 1009 3 5 0.01 0.25
6:43 pm 18:43 Cloudy with Mist and Fog 28 -2 28 -2 100 100 Calm 29.80 1009 5 8 0.01 0.25
6:56 pm 18:56 Cloudy with Mist and Fog 30 -1.1 29 -1.7 96 96 Calm 29.79 1009 4 6 0.01 0.25
7:56 pm 19:56 Cloudy with Mist and Fog 30 -1.1 30 -1.1 100 100 W 8 13 29.81 1010 4 6 0.00 0.00
8:38 pm 20:38 Cloudy with Light Snow 30 -1 30 -1 100 100 W 12 19 29.83 1010 2 3 0.00 0.03
8:56 pm 20:56 Cloudy with Light Snow 30 -1.1 30 -1.1 100 100 W 10 17 29.82 1010 2 3 0.00 0.03
9:15 pm 21:15 Cloudy with Mist and Fog 30 -1 30 -1 100 100 W 12 19 29.84 1010 4 6 0.00 0.03
9:56 pm 21:56 Cloudy with Mist and Fog 30 -1.1 30 -1.1 100 100 W 12 19 29.84 1010 6 10 0.00 0.03
10:14 pm 22:14 Cloudy 30 -1 30 -1 100 100 W 14 22 29.86 1011 7 11 0.00 0.00
10:56 pm 22:56 Cloudy 30 -1.1 30 -1.1 100 100 W 15 24 29.85 1011 8 13 0.00 0.00
11:16 pm 23:16 Cloudy 30 -1 30 -1 100 100 W 10 17 29.89 1012 9 14 0.00 0.00
11:56 pm 23:56 Cloudy 30 -1.1 30 -1.1 100 100 W 10 17 29.87 1012 9 14 0.00 0.00

Powered by AerisWeather